Regional Weather Roundup
Issued by NWS San Diego, CA

Home | Current Version | Previous Version | Text Only | Print | Product List | Glossary On
Versions: 1 2 3 4 5 6 7 8 9 10 11 12 13 14 15 16 17 18 19 20 21 22 23 24 25 26 27 28 29 30 31 32 33 34 35 36 37 38 39 40 41 42 43 44 45 46 47 48 49 50
000
ASUS46 KSGX 161811
RWRSGX

SAN DIEGO HOURLY WEATHER ROUNDUP
NATIONAL WEATHER SERVICE SAN DIEGO CA
1000 AM PST MON JAN 16 2017

NOTE: "FAIR" INDICATES FEW OR NO CLOUDS BELOW 12,000 FEET WITH NO
SIGNIFICANT WEATHER AND/OR OBSTRUCTIONS TO VISIBILITY.

CAZ042-043-060-061-PZZ750-775-161900-

GREATER SAN DIEGO AREA

CITY           SKY/WX    TMP DP  RH WIND       PRES   REMARKS
SAN DIEGO AP   PTSUNNY   59  49  69 NW7       30.11R
NATIONAL CITY    N/A     58  54  86 CALM      30.10R
CHULA VISTA      N/A     60  53  77 E3        30.02R
IMPERIAL BEACH PTSUNNY   62  50  64 N6        30.10R
BROWN FIELD    PTSUNNY   58  50  75 CALM      30.09R
MIRAMAR MCAS   PTSUNNY   60  51  72 NW6       30.09R
MONTGOMERY FLD PTSUNNY   57  49  74 NW6       30.10R

$$

NORTH SAN DIEGO COUNTY

CITY           SKY/WX    TMP DP  RH WIND       PRES   REMARKS
CAMP PENDLETON SUNNY     56  51  84 CALM      30.10
OCEANSIDE AP   SUNNY     57  52  83 CALM      30.09S
OCEANSIDE HBR    N/A     58  53  83 SW2       30.13R
VISTA            N/A     51  47  84 CALM      30.08R
CARLSBAD       MOSUNNY   57  50  77 VRB3      30.09R
DEL MAR          N/A     55  53  92 CALM      30.12R
LA JOLLA SCRIP   N/A     56  53  89 CALM      30.10R
FALLBROOK        N/A     53  53  99 NW3       30.09R
ESCONDIDO        N/A     57  52  84 CALM      30.11R
SAN MARCOS       N/A     55  50  84 CALM      30.12R

$$

EAST SAN DIEGO COUNTY

CITY           SKY/WX    TMP DP  RH WIND       PRES   REMARKS
RAMONA         PTSUNNY   53  48  83 CALM      30.08S
SANTEE LAKES     N/A     56  52  88 CALM      30.09R
LA MESA          N/A     55  50  84 CALM      30.04R
JAMUL            N/A     57  51  79 CALM      30.10R
DESCANSO N       N/A     48  39  72 W1        30.06R
CAMPO            N/A     55  37  50 NE18      30.03R

$$

ORANGE COUNTY AND THE LOS ANGELES BASIN

CITY           SKY/WX    TMP DP  RH WIND       PRES   REMARKS
JOHN WAYNE AP  MOSUNNY   60  51  72 VRB6      30.11R
LAGUNA BEACH     N/A     58  54  85 CALM      30.05S
HUNTINGTON BCH   N/A     60  54  80 CALM      30.12R
LOS ALAMITOS   CLOUDY    60  51  74 N5        30.11R
FULLERTON      PTSUNNY   62  51  67 CALM      30.10R
LONG BEACH     MOSUNNY   61  49  64 MISG      30.11R
L.A. AP        PTSUNNY   60  51  72 NW3       30.11R
L.A. DOWNTOWN  PTSUNNY   61  49  64 CALM      30.10S

$$

THE INLAND EMPIRE

CITY           SKY/WX    TMP DP  RH WIND       PRES   REMARKS
CORONA         SUNNY     58  50  75 CALM      30.11S
CHINO          MOSUNNY   57  51  80 W3        30.12R
ONTARIO        MOSUNNY   54  50  86 SW6       30.10R
SAN BERNARDINO MOSUNNY   54  46  76 CALM      30.10R
RIVERSIDE AP   MOSUNNY   49  49 100 CALM      30.11R
MORENO VALLEY    N/A     54  52  92 W2        28.22R
MARCH ARB      SUNNY     53  53 100 N3        30.09S
HORSETHIEF CYN   N/A     56  44  64 E2        30.13R
PERRIS           N/A     52  51  96 W2        30.12S
HEMET EAST       N/A     50  41  69 CALM      30.17R
FRENCH VALLEY  NOT AVBL
TEMECULA         N/A     50  48  92 E2        30.18R

$$

SAN BERNARDINO AND RIVERSIDE COUNTY MOUNTAINS

CITY           SKY/WX    TMP DP  RH WIND       PRES   REMARKS
BIG BEAR AP    SUNNY     34  19  55 E7        30.12S WCI  28
PINE COVE        N/A     40  29  64 S2        30.12R

$$

SOUTHERN DESERT INCLUDING THE COACHELLA VALLEY

CITY           SKY/WX    TMP DP  RH WIND       PRES   REMARKS
PALM SPRINGS   MOSUNNY   56  45  66 CALM      30.12R
PALM DESERT      N/A     57  49  74 CALM      30.85S
THERMAL        PTSUNNY   58  48  69 CALM      30.09R
BLYTHE         MOSUNNY   58  42  55 NE7       30.10R
IMPERIAL AP    FOG       50  50 100 CALM      30.10R VSB 1/2
EL CENTRO NAS  PTSUNNY   52  50  93 N3        30.12R FOG
YUMA AZ        PTSUNNY   61  51  70 W3        30.08
MEXICALI         N/A     54  52  94 CALM      30.10  FOG

$$

UPPER DESERT

CITY           SKY/WX    TMP DP  RH WIND       PRES   REMARKS
VICTORVILLE AP SUNNY     46  34  61 CALM      30.14S
HESPERIA         N/A     46  37  71 N1        30.31R
PALMDALE       SUNNY     44  40  85 CALM      30.15R
LANCASTER      SUNNY     45  38  76 CALM      30.16R
EDWARDS AFB    SUNNY     42  41  99 CALM      30.14R
DAGGETT        SUNNY     50  29  44 E3        30.16R
29 PALMS N     PTSUNNY   51  30  44 NW8       30.21R
NEEDLES        MOSUNNY   55  29  36 N10       30.14R

$$

REGIONAL REPORTS

CITY           SKY/WX    TMP DP  RH WIND       PRES   REMARKS
SANTA BARBARA  SUNNY     58  52  80 CALM      30.11R
SANDBERG       SUNNY     48  29  47 E16       30.13R
LAS VEGAS NV   MOSUNNY   49  21  33 NE17      30.16R
PHOENIX AZ     PTSUNNY   55  46  71 W6        30.06R
TIJUANA        PTSUNNY   57  45  62 CALM      30.11S
ENSENADA NW      N/A     57  32  38 W2        30.07R

$$

OFFSHORE ISLANDS

CITY           SKY/WX    TMP DP  RH WIND       PRES   REMARKS
CATALINA ARPT  SUNNY     54  48  80 VRB3      30.10S
SAN NICOLAS IS SUNNY    N/A N/A N/A NE8       30.11R

$$

MARINE AND OFFSHORE BUOY REPORTS

STATION/POSITION SKY/WX   TEMP    WIND        PRES    VSBY  SWELL
                          AIR SEA DIR/SP/G                  HT/PER/DIR
                          (F)     (DEG/KT/KT) (MB)    (MI)  (FT/S/D)
TANNER BANKS               56 60  360/  8/  8 1019.3R         7/320/17
S CLEMENTE BASIN           57 61  310/  4/  6 1019.1R         5/280/17
SAN NICOLAS IS.               58                N/A           7/290/17
SO. S. ROSA ISLA           57 57  330/  4/  6 1019.6R         7/280/16
W. S. BARBARA CH           56 57  270/  6/  8 1019.8R         7/290/16
M. S. BARBARA CH                  230/  2/  4 1020.1R
S. MONICA BASIN            60 59     CALM     1019.5R         5/270/17
S PEDRO CHANNEL               59                N/A           3/270/17
CMP PENDLETON NS              60                N/A           2/250/18
OCEANSIDE OFFSHR              60                N/A           2/250/18
TORREY PINES OTR              60                N/A           2/270/18
POINT LOMA SOUTH              60                N/A           3/290/18

$$




USA.gov is the U.S. government's official web portal to all federal, state and local government web resources and services.